When you browse on this site, cookies collect data to enhance your experience and personalize the content and advertising you see.
Visit our Privacy Policy to learn more. By continuing to use the site, you agree to this use of cookies and data.
  • In France
  • List of Countries
  • For 7 days
  • Water Temperature
  • Satellite Maps
  • Weather Map
  • Weather Widgets
  • user-avatar
    Login

    Hourly Weather Canillo

    Today, 22 January, Tuesday

    Time Temperature Precipitation Wind Pressure Humidity
    00:00 -12°C° 0 mm 2 mps 611 mmHg 80%
    01:00 -12°C° 0 mm 2 mps 611 mmHg 75%
    02:00 -12°C° 0 mm 2 mps 611 mmHg 70%
    03:00 -12°C° 0 mm 2 mps 610 mmHg 65%
    04:00 -12°C° 0 mm 2 mps 610 mmHg 61%
    05:00 -12°C° 0 mm 2 mps 610 mmHg 57%
    06:00 -12°C° 0 mm 2 mps 609 mmHg 53%
    07:00 -10°C° 0 mm 2 mps 610 mmHg 51%
    08:00 -8°C° 0 mm 2 mps 610 mmHg 49%
    09:00 -7°C° 0 mm 2 mps 611 mmHg 47%
    10:00 -3°C° 0 mm 1 mps 611 mmHg 42%
    11:00 -1°C° 0 mm 1 mps 611 mmHg 38%
    12:00 +1°C° 0 mm 1 mps 611 mmHg 34%
    13:00 0°C° 0.1 mm 1 mps 610 mmHg 42%
    14:00 0°C° 0.1 mm 1 mps 609 mmHg 50%
    15:00 -1°C° 0.1 mm 1 mps 608 mmHg 58%
    16:00 -3°C° 0.7 mm 2 mps 608 mmHg 67%
    17:00 -5°C° 0.7 mm 3 mps 608 mmHg 77%
    18:00 -7°C° 0.7 mm 4 mps 607 mmHg 86%
    19:00 -7°C° 0 mm 3 mps 607 mmHg 87%
    20:00 -8°C° 0 mm 3 mps 606 mmHg 88%
    21:00 -9°C° 0 mm 2 mps 605 mmHg 89%
    22:00 -8°C° 0.1 mm 2 mps 605 mmHg 89%
    23:00 -8°C° 0.1 mm 2 mps 605 mmHg 89%

    Tomorrow, 23 January, Wednesday

    Time Temperature Precipitation Wind Pressure Humidity
    00:00 -6°C° 0.1 mm 1 mps 605 mmHg 89%
    01:00 -7°C° 0.5 mm 2 mps 605 mmHg 89%
    02:00 -6°C° 0.5 mm 2 mps 605 mmHg 89%
    03:00 -5°C° 0.5 mm 2 mps 605 mmHg 88%
    04:00 -4°C° 0.6 mm 1 mps 604 mmHg 89%
    05:00 -4°C° 0.6 mm 1 mps 603 mmHg 90%
    06:00 -4°C° 0.6 mm 1 mps 602 mmHg 91%
    07:00 -4°C° 1.5 mm 1 mps 602 mmHg 92%
    08:00 -3°C° 1.5 mm 1 mps 602 mmHg 93%
    09:00 -3°C° 1.5 mm 1 mps 601 mmHg 94%
    10:00 -6°C° 1.8 mm 3 mps 601 mmHg 94%
    11:00 -7°C° 1.8 mm 4 mps 601 mmHg 93%
    12:00 -8°C° 1.8 mm 6 mps 601 mmHg 93%
    13:00 -8°C° 1.4 mm 6 mps 601 mmHg 93%
    14:00 -8°C° 1.4 mm 5 mps 601 mmHg 92%
    15:00 -8°C° 1.4 mm 5 mps 601 mmHg 92%
    16:00 -10°C° 1.4 mm 6 mps 601 mmHg 93%
    17:00 -12°C° 1.4 mm 7 mps 601 mmHg 94%
    18:00 -13°C° 1.4 mm 8 mps 602 mmHg 96%
    19:00 -13°C° 0.8 mm 8 mps 602 mmHg 95%
    20:00 -13°C° 0.8 mm 7 mps 602 mmHg 95%
    21:00 -14°C° 0.8 mm 7 mps 603 mmHg 95%
    22:00 -14°C° 0.4 mm 7 mps 603 mmHg 94%
    23:00 -15°C° 0.4 mm 7 mps 603 mmHg 93%

    Day after tomorrow, 24 January, Thursday

    Time Temperature Precipitation Wind Pressure Humidity
    00:00 -15°C° 0.4 mm 7 mps 603 mmHg 93%
    01:00 -16°C° 0.9 mm 8 mps 603 mmHg 93%
    02:00 -16°C° 0.9 mm 8 mps 603 mmHg 94%
    03:00 -16°C° 0.9 mm 8 mps 603 mmHg 94%
    04:00 -16°C° 0.5 mm 8 mps 604 mmHg 94%
    05:00 -15°C° 0.5 mm 7 mps 604 mmHg 94%
    06:00 -17°C° 0.5 mm 7 mps 604 mmHg 94%
    07:00 -15°C° 0.3 mm 7 mps 605 mmHg 92%
    08:00 -15°C° 0.3 mm 6 mps 605 mmHg 91%
    09:00 -15°C° 0.3 mm 6 mps 606 mmHg 90%
    10:00 -14°C° 0.1 mm 6 mps 606 mmHg 87%
    11:00 -14°C° 0.1 mm 6 mps 607 mmHg 85%
    12:00 -12°C° 0.1 mm 6 mps 607 mmHg 82%
    13:00 -12°C° 0 mm 6 mps 607 mmHg 84%
    14:00 -12°C° 0 mm 6 mps 607 mmHg 85%
    15:00 -12°C° 0 mm 6 mps 607 mmHg 86%
    16:00 -14°C° 0.2 mm 6 mps 608 mmHg 88%
    17:00 -13°C° 0.2 mm 5 mps 608 mmHg 89%
    18:00 -13°C° 0.2 mm 5 mps 609 mmHg 91%
    19:00 -14°C° 0.1 mm 5 mps 609 mmHg 91%
    20:00 -14°C° 0.1 mm 4 mps 610 mmHg 90%
    21:00 -14°C° 0.1 mm 4 mps 610 mmHg 90%
    22:00 -15°C° 0 mm 4 mps 610 mmHg 89%
    23:00 -15°C° 0 mm 4 mps 610 mmHg 88%

    25 January, Friday

    Time Temperature Precipitation Wind Pressure Humidity
    00:00 -16°C° 0 mm 4 mps 609 mmHg 86%
    01:00 -16°C° 0 mm 4 mps 609 mmHg 81%
    02:00 -16°C° 0 mm 4 mps 609 mmHg 76%
    03:00 -16°C° 0 mm 4 mps 609 mmHg 71%
    04:00 -16°C° 0 mm 4 mps 609 mmHg 69%
    05:00 -16°C° 0 mm 4 mps 610 mmHg 66%
    06:00 -15°C° 0 mm 4 mps 610 mmHg 64%
    07:00 -12°C° 0 mm 4 mps 611 mmHg 67%
    08:00 -10°C° 0 mm 4 mps 612 mmHg 70%
    09:00 -8°C° 0 mm 4 mps 613 mmHg 73%
    10:00 -7°C° 0 mm 5 mps 614 mmHg 77%
    11:00 -6°C° 0 mm 5 mps 614 mmHg 81%
    12:00 -4°C° 0 mm 5 mps 615 mmHg 85%
    13:00 -4°C° 0 mm 5 mps 615 mmHg 87%
    14:00 -3°C° 0 mm 4 mps 615 mmHg 89%
    15:00 -3°C° 0 mm 4 mps 615 mmHg 91%
    16:00 -3°C° 0 mm 4 mps 614 mmHg 91%
    17:00 -3°C° 0 mm 4 mps 614 mmHg 92%
    18:00 -4°C° 0 mm 4 mps 614 mmHg 92%
    19:00 -4°C° 0 mm 4 mps 614 mmHg 92%
    20:00 -4°C° 0 mm 4 mps 615 mmHg 92%
    21:00 -4°C° 0 mm 3 mps 615 mmHg 92%
    22:00 -4°C° 0 mm 3 mps 614 mmHg 93%
    23:00 -5°C° 0 mm 3 mps 614 mmHg 93%

    26 January, Saturday

    Time Temperature Precipitation Wind Pressure Humidity
    00:00 -4°C° 0 mm 2 mps 614 mmHg 93%
    01:00 -5°C° 0 mm 2 mps 613 mmHg 93%
    02:00 -5°C° 0 mm 2 mps 613 mmHg 93%
    03:00 -6°C° 0 mm 2 mps 612 mmHg 92%
    04:00 -6°C° 0 mm 2 mps 612 mmHg 91%
    05:00 -6°C° 0 mm 2 mps 611 mmHg 91%
    06:00 -7°C° 0 mm 2 mps 611 mmHg 90%
    07:00 -5°C° 0 mm 2 mps 611 mmHg 88%
    08:00 -4°C° 0 mm 2 mps 612 mmHg 86%
    09:00 -1°C° 0 mm 1 mps 612 mmHg 85%
    10:00 0°C° 0 mm 1 mps 612 mmHg 87%
    11:00 +1°C° 0 mm 1 mps 612 mmHg 89%
    12:00 +2°C° 0 mm 1 mps 612 mmHg 91%
    13:00 +2°C° 0 mm 1 mps 612 mmHg 92%
    14:00 +2°C° 0 mm 1 mps 611 mmHg 93%
    15:00 +2°C° 0 mm 1 mps 610 mmHg 94%
    16:00 -1°C° 0.6 mm 2 mps 610 mmHg 94%
    17:00 -2°C° 0.6 mm 3 mps 609 mmHg 94%
    18:00 -4°C° 0.6 mm 4 mps 609 mmHg 94%
    19:00 -5°C° 0.2 mm 3 mps 608 mmHg 94%
    20:00 -6°C° 0.2 mm 3 mps 608 mmHg 94%
    21:00 -7°C° 0.2 mm 3 mps 608 mmHg 93%
    22:00 -7°C° 0.5 mm 3 mps 608 mmHg 93%
    23:00 -7°C° 0.5 mm 3 mps 608 mmHg 93%

    27 January, Sunday

    Time Temperature Precipitation Wind Pressure Humidity
    00:00 -8°C° 0.5 mm 4 mps 608 mmHg 94%
    01:00 -9°C° 0.9 mm 4 mps 608 mmHg 94%
    02:00 -9°C° 0.9 mm 4 mps 607 mmHg 95%
    03:00 -9°C° 0.9 mm 4 mps 607 mmHg 96%
    04:00 -11°C° 0.6 mm 5 mps 607 mmHg 95%
    05:00 -11°C° 0.6 mm 5 mps 607 mmHg 94%
    06:00 -11°C° 0.6 mm 6 mps 607 mmHg 93%
    07:00 -11°C° 0.5 mm 6 mps 608 mmHg 93%
    08:00 -11°C° 0.5 mm 6 mps 608 mmHg 92%
    09:00 -10°C° 0.5 mm 5 mps 608 mmHg 92%
    10:00 -10°C° 0.5 mm 5 mps 608 mmHg 90%
    11:00 -10°C° 0.5 mm 5 mps 608 mmHg 89%
    12:00 -8°C° 0.5 mm 5 mps 608 mmHg 88%
    13:00 -8°C° 0.8 mm 5 mps 607 mmHg 89%
    14:00 -8°C° 0.8 mm 5 mps 607 mmHg 90%
    15:00 -8°C° 0.8 mm 4 mps 606 mmHg 91%
    16:00 -8°C° 1.1 mm 4 mps 606 mmHg 92%
    17:00 -7°C° 1.1 mm 3 mps 606 mmHg 94%
    18:00 -7°C° 1.1 mm 2 mps 606 mmHg 95%
    19:00 -8°C° 0.9 mm 3 mps 606 mmHg 95%
    20:00 -8°C° 0.9 mm 3 mps 606 mmHg 95%
    21:00 -8°C° 0.9 mm 3 mps 606 mmHg 95%
    22:00 -9°C° 0.3 mm 3 mps 606 mmHg 94%
    23:00 -10°C° 0.3 mm 3 mps 605 mmHg 94%
    Show more